Redwood Falls, MN

8:24 PM CDT on May 25, 2018 (GMT -0500)
Redwood Falls Municipal

Weather History for KRWF - October, 2011

Change the Weather History Date:

Saturday, October 22, 2011

  Actual Average Record
Temperature  
Mean Temperature 48 °F -  
Max Temperature 62 °F 59 °F 82 °F (1992)
Min Temperature 34 °F 38 °F 15 °F (1936)
Degree Days  
Heating Degree Days 17    
Moisture  
Dew Point 35 °F    
Average Humidity 63    
Maximum Humidity 92    
Minimum Humidity 37    
Precipitation  
Precipitation 0.00 in - - ()
Sea Level Pressure  
Sea Level Pressure 30.08 in    
Wind  
Wind Speed 6 mph (SW)    
Max Wind Speed 10 mph    
Max Gust Speed -    
Visibility 10 miles    
Events Rain    
Averages and records for this station are not official NWS values.
T = Trace of Precipitation, MM = Missing Value Source: NWS Daily Summary

Daily Weather History Graph

Daily Weather History Graph

Search for Another Location

Airport or City:

Astronomy

Oct. 22, 2011 Rise Set
Actual Time 7:44 AM CDT 6:24 PM CDT
Civil Twilight 7:14 AM CDT 6:54 PM CDT
Nautical Twilight 6:40 AM CDT 7:28 PM CDT
Astronomical Twilight 6:06 AM CDT 8:01 PM CDT
Moon 2:31 AM CDT (10/22) 3:52 PM CDT (10/22)
Length of Visible Light 11h 39m
Length of Day
10h 40m
Waning Crescent, 23% of the Moon is Illuminated
Oct 22
Waning Crescent
Oct 26
New
Nov 2
First Quarter
Nov 10
Full
Nov 18
Last Quarter

Hourly Weather History & Observations

Time (CDT) Temp. Windchill Dew Point Humidity Pressure Visibility Wind Dir Wind Speed Gust Speed Precip Events Conditions
12:53 AM 45.0 °F 41.2 °F 36.0 °F 71% 30.07 in 10.0 mi WNW 6.9 mph - N/A   Clear
2:53 AM 41.0 °F 36.4 °F 35.1 °F 79% 30.08 in 10.0 mi NW 6.9 mph - N/A   Clear
3:53 AM 39.0 °F 34.8 °F 34.0 °F 82% 30.09 in 10.0 mi WNW 5.8 mph - N/A   Clear
4:53 AM 37.9 °F 34.4 °F 34.0 °F 86% 30.11 in 10.0 mi West 4.6 mph - N/A   Clear
5:53 AM 37.0 °F 32.4 °F 34.0 °F 89% 30.12 in 10.0 mi West 5.8 mph - N/A   Clear
6:53 AM 36.0 °F 33.3 °F 33.1 °F 89% 30.14 in 10.0 mi West 3.5 mph - N/A   Clear
7:53 AM 34.0 °F 31.0 °F 32.0 °F 92% 30.14 in 9.0 mi North 3.5 mph - N/A   Clear
8:53 AM 39.0 °F - 35.1 °F 86% 30.17 in 9.0 mi Calm Calm - N/A   Clear
9:53 AM 44.1 °F - 37.0 °F 76% 30.16 in 10.0 mi Calm Calm - N/A   Clear
10:53 AM 52.0 °F - 37.9 °F 59% 30.16 in 10.0 mi Calm Calm - N/A   Clear
11:53 AM 55.0 °F - 37.9 °F 53% 30.14 in 10.0 mi South 3.5 mph - N/A   Clear
12:53 PM 57.9 °F - 37.0 °F 46% 30.13 in 10.0 mi South 5.8 mph - N/A   Clear
1:53 PM 60.1 °F - 36.0 °F 41% 30.11 in 10.0 mi Variable 4.6 mph - N/A   Clear
2:53 PM 61.0 °F - 36.0 °F 39% 30.08 in 10.0 mi SSW 5.8 mph - N/A   Clear
3:53 PM 61.0 °F - 35.1 °F 38% 30.06 in 10.0 mi SW 5.8 mph - N/A   Clear
4:53 PM 62.1 °F - 35.1 °F 37% 30.04 in 10.0 mi SW 6.9 mph - N/A   Clear
5:53 PM 59.0 °F - 35.1 °F 41% 30.03 in 10.0 mi South 4.6 mph - N/A   Clear
6:53 PM 52.0 °F - 34.0 °F 50% 30.03 in 10.0 mi SSE 6.9 mph - N/A   Scattered Clouds
7:53 PM 51.1 °F - 35.1 °F 54% 30.03 in 10.0 mi South 9.2 mph - N/A   Overcast
8:53 PM 48.0 °F - 34.0 °F 58% 30.00 in 10.0 mi SSE 10.4 mph - N/A   Mostly Cloudy
9:53 PM 51.1 °F - 35.1 °F 54% 30.00 in 10.0 mi South 10.4 mph - N/A   Overcast
10:53 PM 50.0 °F - 36.0 °F 59% 29.97 in 10.0 mi South 9.2 mph - 0.00 in   Overcast
11:53 PM 48.9 °F - 39.9 °F 71% 29.94 in 9.0 mi SSW 8.1 mph - 0.00 in Rain Light Rain